VIASAT-1

Last updated on Wed Nov 05 2025 00:02:47 GMT+0000 (Coordinated Universal Time)

1 37843U 11059A 25308.51344216 -.00000011 00000+0 00000+0 0 9996 2 37843 0.0156 269.8195 0002127 313.7970 250.1292 1.00270504 45077
UTC large
Height (km)
Speed (km/s)
/
Latitude / Longitude
Inclination (degrees)
Orbital Period (minutes)
Azimuth
Elevation
Range (km)
Doppler Factor

Next 0 passes for location: London (51.5072 / 0.1276)

Sorry there are no passes over London.